This is the latest recevied weather packets stored in our database for station/object IT9DBI-3. If no packets are shown the sender has not sent any weather packets the latest 10 day(s).
| Time | Temp. | Humidity | Pressure | Rain* | Wind** | Luminosity | Snow |
|---|---|---|---|---|---|---|---|
| 1777375494 | 21.11° C | 63% | 1015.1 hPa | - | - | - | - |
| 1777374293 | 21.11° C | 67% | 1015.2 hPa | - | - | - | - |
| 1777373092 | 20.56° C | 71% | 1015.5 hPa | - | - | - | - |
| 1777371891 | 20° C | 73% | 1015.7 hPa | - | - | - | - |
| 1777370689 | 20.56° C | 68% | 1015.7 hPa | - | - | - | - |
| 1777369488 | 20° C | 69% | 1015.7 hPa | - | - | - | - |
| 1777368287 | 19.44° C | 70% | 1015.8 hPa | - | - | - | - |
| 1777367086 | 19.44° C | 78% | 1015.9 hPa | - | - | - | - |
| 1777365884 | 18.89° C | 77% | 1015.8 hPa | - | - | - | - |
| 1777364683 | 19.44° C | 79% | 1015.8 hPa | - | - | - | - |
| 1777363480 | 18.33° C | 86% | 1015.8 hPa | - | - | - | - |
| 1777362278 | 18.33° C | 87% | 1015.9 hPa | - | - | - | - |
| 1777361077 | 17.78° C | 84% | 1015.9 hPa | - | - | - | - |
| 1777359875 | 17.22° C | 91% | 1016 hPa | - | - | - | - |
| 1777358674 | 16.11° C | 98% | 1016 hPa | - | - | - | - |
| 1777357473 | 15.56° C | 100% | 1016.2 hPa | - | - | - | - |
| 1777356269 | 15° C | 100% | 1016.2 hPa | - | - | - | - |
| 1777355067 | 14.44° C | 100% | 1016.2 hPa | - | - | - | - |
| 1777353866 | 13.89° C | 100% | 1016.2 hPa | - | - | - | - |
| 1777352665 | 13.33° C | 100% | 1016.2 hPa | - | - | - | - |
| 1777351464 | 12.78° C | 100% | 1016 hPa | - | - | - | - |
| 1777350262 | 12.78° C | 100% | 1016.3 hPa | - | - | - | - |
| 1777349059 | 12.78° C | 100% | 1016.2 hPa | - | - | - | - |
| 1777346628 | 12.78° C | 100% | 1016.3 hPa | - | - | - | - |
| 1777345426 | 12.78° C | 100% | 1016.5 hPa | - | - | - | - |
* Rain since midnight (hover to see other rain measurements)
** Current wind speed in m/s (hover to see current wind gust speed)